Time,TemperatureF,DewpointF,PressureIn,WindDirection,WindDirectionDegrees,WindSpeedMPH,WindSpeedGustMPH,Humidity,HourlyPrecipIn,Conditions,Clouds,dailyrainin,SoftwareType,DateUTC
2013-02-14 00:01:00,35.0,12.0,30.09,WSW,240,0.0,0.0,38,0.00,,,0.00,,2013-02-14 07:01:00,
2013-02-14 00:11:00,34.0,12.0,30.09,WSW,240,0.0,0.0,40,0.00,,,0.00,,2013-02-14 07:11:00,
2013-02-14 00:21:00,34.0,12.0,30.09,WSW,240,0.0,0.0,40,0.00,,,0.00,,2013-02-14 07:21:00,
2013-02-14 00:31:00,33.0,11.0,30.09,WSW,240,0.0,0.0,39,0.00,,,0.00,,2013-02-14 07:31:00,
2013-02-14 00:41:00,33.0,11.0,30.09,WSW,240,0.0,0.0,39,0.00,,,0.00,,2013-02-14 07:41:00,
2013-02-14 00:52:00,33.0,11.0,30.09,WSW,240,0.0,0.0,40,0.00,,,0.00,,2013-02-14 07:52:00,
2013-02-14 01:01:00,34.0,11.0,30.09,WSW,240,0.0,0.0,38,0.00,,,0.00,,2013-02-14 08:01:00,
2013-02-14 01:11:00,34.0,11.0,30.09,WSW,240,0.0,0.0,38,0.00,,,0.00,,2013-02-14 08:11:00,
2013-02-14 01:21:00,33.0,11.0,30.09,WSW,240,0.0,0.0,40,0.00,,,0.00,,2013-02-14 08:21:00,
2013-02-14 01:31:00,32.0,11.0,30.09,WSW,240,0.0,0.0,41,0.00,,,0.00,,2013-02-14 08:31:00,
2013-02-14 01:43:00,32.0,11.0,30.09,WSW,240,0.0,0.0,41,0.00,,,0.00,,2013-02-14 08:43:00,
2013-02-14 01:52:00,32.0,12.0,30.09,North,356,1.0,3.0,42,0.00,,,0.00,,2013-02-14 08:52:00,
2013-02-14 02:01:00,33.0,11.0,30.08,North,352,0.0,6.0,40,0.00,,,0.00,,2013-02-14 09:01:00,
2013-02-14 02:11:00,32.0,10.0,30.08,NNE,23,1.0,4.0,40,0.00,,,0.00,,2013-02-14 09:11:00,
2013-02-14 02:21:00,32.0,10.0,30.08,NNE,23,1.0,4.0,40,0.00,,,0.00,,2013-02-14 09:21:00,
2013-02-14 02:31:00,33.0,10.0,30.08,North,3,0.0,4.0,38,0.00,,,0.00,,2013-02-14 09:31:00,
2013-02-14 02:41:00,33.0,10.0,30.08,North,3,0.0,4.0,38,0.00,,,0.00,,2013-02-14 09:41:00,
2013-02-14 02:52:00,33.0,10.0,30.07,North,3,0.0,0.0,37,0.00,,,0.00,,2013-02-14 09:52:00,
2013-02-14 03:02:00,33.0,10.0,30.07,NNW,332,0.0,3.0,37,0.00,,,0.00,,2013-02-14 10:02:00,
2013-02-14 03:11:00,32.0,10.0,30.08,NNW,332,0.0,0.0,39,0.00,,,0.00,,2013-02-14 10:11:00,
2013-02-14 03:21:00,32.0,10.0,30.08,NNW,332,0.0,0.0,39,0.00,,,0.00,,2013-02-14 10:21:00,
2013-02-14 03:31:00,31.0,9.0,30.07,NNW,332,0.0,0.0,39,0.00,,,0.00,,2013-02-14 10:31:00,
2013-02-14 03:42:00,31.0,9.0,30.07,NNW,332,0.0,0.0,39,0.00,,,0.00,,2013-02-14 10:42:00,
2013-02-14 03:52:00,31.0,10.0,30.07,NNW,332,0.0,0.0,40,0.00,,,0.00,,2013-02-14 10:52:00,
2013-02-14 04:01:00,30.0,9.0,30.07,NNW,332,0.0,0.0,41,0.00,,,0.00,,2013-02-14 11:01:00,
2013-02-14 04:11:00,29.0,10.0,30.07,NNW,332,0.0,0.0,44,0.00,,,0.00,,2013-02-14 11:11:00,
2013-02-14 04:21:00,29.0,10.0,30.07,NNW,332,0.0,0.0,44,0.00,,,0.00,,2013-02-14 11:21:00,
2013-02-14 04:32:00,29.0,10.0,30.07,NNW,332,0.0,0.0,45,0.00,,,0.00,,2013-02-14 11:32:00,
2013-02-14 04:42:00,29.0,10.0,30.07,NNW,332,0.0,0.0,45,0.00,,,0.00,,2013-02-14 11:42:00,
2013-02-14 04:52:00,28.0,10.0,30.07,NNW,332,0.0,0.0,46,0.00,,,0.00,,2013-02-14 11:52:00,
2013-02-14 05:02:00,29.0,12.0,30.07,NNW,332,0.0,0.0,48,0.00,,,0.00,,2013-02-14 12:02:00,
2013-02-14 05:11:00,29.0,12.0,30.07,NNW,332,0.0,0.0,48,0.00,,,0.00,,2013-02-14 12:11:00,
2013-02-14 05:22:00,29.0,12.0,30.07,NNW,332,0.0,0.0,48,0.00,,,0.00,,2013-02-14 12:22:00,
2013-02-14 05:32:00,28.0,10.0,30.08,NNW,332,0.0,0.0,47,0.00,,,0.00,,2013-02-14 12:32:00,
2013-02-14 05:42:00,28.0,11.0,30.09,NNW,332,0.0,0.0,49,0.00,,,0.00,,2013-02-14 12:42:00,
2013-02-14 05:53:00,28.0,11.0,30.09,NNW,332,0.0,0.0,49,0.00,,,0.00,,2013-02-14 12:53:00,
2013-02-14 06:01:00,27.0,11.0,30.09,NNW,332,0.0,0.0,51,0.00,,,0.00,,2013-02-14 13:01:00,
2013-02-14 06:11:00,27.0,11.0,30.09,NNW,332,0.0,0.0,51,0.00,,,0.00,,2013-02-14 13:11:00,
2013-02-14 06:21:00,26.0,11.0,30.10,NNW,332,0.0,0.0,52,0.00,,,0.00,,2013-02-14 13:21:00,
2013-02-14 06:31:00,26.0,12.0,30.11,NNW,332,0.0,0.0,54,0.00,,,0.00,,2013-02-14 13:31:00,
2013-02-14 06:41:00,26.0,12.0,30.11,NNW,332,0.0,0.0,54,0.00,,,0.00,,2013-02-14 13:41:00,
2013-02-14 06:52:00,26.0,12.0,30.12,NNW,332,0.0,0.0,56,0.00,,,0.00,,2013-02-14 13:52:00,
2013-02-14 07:01:00,26.0,12.0,30.12,NNW,332,0.0,0.0,55,0.00,,,0.00,,2013-02-14 14:01:00,
2013-02-14 07:11:00,27.0,13.0,30.12,NNW,332,0.0,0.0,54,0.00,,,0.00,,2013-02-14 14:11:00,
2013-02-14 07:21:00,27.0,13.0,30.12,NNW,332,0.0,0.0,54,0.00,,,0.00,,2013-02-14 14:21:00,
2013-02-14 07:31:00,27.0,13.0,30.14,NNW,332,0.0,0.0,55,0.00,,,0.00,,2013-02-14 14:31:00,
2013-02-14 07:41:00,27.0,13.0,30.14,NNW,332,0.0,0.0,55,0.00,,,0.00,,2013-02-14 14:41:00,
2013-02-14 07:52:00,28.0,13.0,30.14,NNW,332,0.0,0.0,53,0.00,,,0.00,,2013-02-14 14:52:00,
2013-02-14 08:01:00,29.0,13.0,30.16,NNW,332,0.0,0.0,50,0.00,,,0.00,,2013-02-14 15:01:00,
2013-02-14 08:11:00,31.0,13.0,30.16,WNW,290,0.0,3.0,47,0.00,,,0.00,,2013-02-14 15:11:00,
2013-02-14 08:21:00,31.0,13.0,30.16,WNW,290,0.0,3.0,47,0.00,,,0.00,,2013-02-14 15:21:00,
2013-02-14 08:31:00,34.0,15.0,30.16,NW,318,2.0,3.0,45,0.00,,,0.00,,2013-02-14 15:31:00,
2013-02-14 08:41:00,34.0,15.0,30.16,NW,318,2.0,3.0,45,0.00,,,0.00,,2013-02-14 15:41:00,
2013-02-14 08:52:00,35.0,14.0,30.16,NNW,332,2.0,3.0,42,0.00,,,0.00,,2013-02-14 15:52:00,
2013-02-14 09:01:00,37.0,15.0,30.16,North,349,0.0,4.0,40,0.00,,,0.00,,2013-02-14 16:01:00,
2013-02-14 09:11:00,40.0,16.0,30.15,North,359,1.0,5.0,38,0.00,,,0.00,,2013-02-14 16:11:00,
2013-02-14 09:21:00,40.0,16.0,30.15,North,359,1.0,5.0,38,0.00,,,0.00,,2013-02-14 16:21:00,
2013-02-14 09:32:00,42.0,17.0,30.15,NNW,345,5.0,8.0,36,0.00,,,0.00,,2013-02-14 16:32:00,
2013-02-14 09:41:00,42.0,17.0,30.15,NNW,345,5.0,8.0,36,0.00,,,0.00,,2013-02-14 16:41:00,
2013-02-14 09:52:00,43.0,17.0,30.14,NE,34,4.0,9.0,35,0.00,,,0.00,,2013-02-14 16:52:00,
2013-02-14 10:01:00,44.0,18.0,30.14,NNE,27,4.0,8.0,35,0.00,,,0.00,,2013-02-14 17:01:00,
2013-02-14 10:11:00,45.0,18.0,30.14,North,350,5.0,8.0,33,0.00,,,0.00,,2013-02-14 17:11:00,
2013-02-14 10:21:00,45.0,18.0,30.14,North,350,5.0,8.0,33,0.00,,,0.00,,2013-02-14 17:21:00,
2013-02-14 10:31:00,47.0,18.0,30.14,NNE,20,6.0,8.0,31,0.00,,,0.00,,2013-02-14 17:31:00,
2013-02-14 10:41:00,47.0,18.0,30.14,NNE,20,6.0,8.0,31,0.00,,,0.00,,2013-02-14 17:41:00,
2013-02-14 10:52:00,49.0,18.0,30.14,North,7,4.0,8.0,29,0.00,,,0.00,,2013-02-14 17:52:00,
2013-02-14 11:01:00,51.0,17.0,30.13,NW,314,4.0,7.0,26,0.00,,,0.00,,2013-02-14 18:01:00,
2013-02-14 11:11:00,51.0,17.0,30.13,NW,314,4.0,7.0,26,0.00,,,0.00,,2013-02-14 18:11:00,
2013-02-14 11:23:00,52.0,17.0,30.12,NE,34,3.0,7.0,25,0.00,,,0.00,,2013-02-14 18:23:00,
2013-02-14 11:32:00,53.0,16.0,30.11,North,4,3.0,7.0,23,0.00,,,0.00,,2013-02-14 18:32:00,
2013-02-14 11:41:00,53.0,16.0,30.11,North,4,3.0,7.0,23,0.00,,,0.00,,2013-02-14 18:41:00,
2013-02-14 11:52:00,55.0,17.0,30.10,NNE,13,2.0,7.0,22,0.00,,,0.00,,2013-02-14 18:52:00,
2013-02-14 12:02:00,56.0,14.0,30.10,North,1,3.0,8.0,19,0.00,,,0.00,,2013-02-14 19:02:00,
2013-02-14 12:11:00,56.0,16.0,30.10,NNE,28,0.0,9.0,20,0.00,,,0.00,,2013-02-14 19:11:00,
2013-02-14 12:21:00,56.0,16.0,30.10,NNE,28,0.0,9.0,20,0.00,,,0.00,,2013-02-14 19:21:00,
2013-02-14 12:31:00,57.0,15.0,30.09,NW,323,1.0,10.0,19,0.00,,,0.00,,2013-02-14 19:31:00,
2013-02-14 12:41:00,57.0,15.0,30.09,NW,323,1.0,10.0,19,0.00,,,0.00,,2013-02-14 19:41:00,
2013-02-14 12:52:00,58.0,15.0,30.09,West,267,2.0,7.0,18,0.00,,,0.00,,2013-02-14 19:52:00,
2013-02-14 13:01:00,59.0,14.0,30.08,SSE,165,3.0,8.0,17,0.00,,,0.00,,2013-02-14 20:01:00,
2013-02-14 13:11:00,59.0,14.0,30.07,WNW,298,3.0,7.0,17,0.00,,,0.00,,2013-02-14 20:11:00,
2013-02-14 13:21:00,59.0,14.0,30.07,WNW,298,3.0,7.0,17,0.00,,,0.00,,2013-02-14 20:21:00,
2013-02-14 13:31:00,60.0,14.0,30.07,East,100,3.0,5.0,16,0.00,,,0.00,,2013-02-14 20:31:00,
2013-02-14 13:41:00,60.0,14.0,30.07,East,100,3.0,5.0,16,0.00,,,0.00,,2013-02-14 20:41:00,
2013-02-14 13:52:00,60.0,14.0,30.06,NE,46,2.0,9.0,16,0.00,,,0.00,,2013-02-14 20:52:00,
2013-02-14 14:02:00,61.0,13.0,30.05,West,264,5.0,8.0,15,0.00,,,0.00,,2013-02-14 21:02:00,
2013-02-14 14:11:00,61.0,13.0,30.05,West,264,5.0,8.0,15,0.00,,,0.00,,2013-02-14 21:11:00,
2013-02-14 14:21:00,62.0,14.0,30.05,North,350,5.0,8.0,15,0.00,,,0.00,,2013-02-14 21:21:00,
2013-02-14 14:31:00,63.0,13.0,30.06,WNW,285,2.0,7.0,14,0.00,,,0.00,,2013-02-14 21:31:00,
2013-02-14 14:41:00,63.0,13.0,30.06,WNW,285,2.0,7.0,14,0.00,,,0.00,,2013-02-14 21:41:00,
2013-02-14 14:52:00,63.0,13.0,30.06,SSE,148,4.0,7.0,14,0.00,,,0.00,,2013-02-14 21:52:00,
2013-02-14 15:02:00,63.0,11.0,30.06,West,273,7.0,9.0,13,0.00,,,0.00,,2013-02-14 22:02:00,
2013-02-14 15:11:00,63.0,11.0,30.05,WNW,295,6.0,11.0,13,0.00,,,0.00,,2013-02-14 22:11:00,
2013-02-14 15:21:00,63.0,11.0,30.05,WNW,295,6.0,11.0,13,0.00,,,0.00,,2013-02-14 22:21:00,
2013-02-14 15:31:00,63.0,11.0,30.04,WNW,301,4.0,11.0,13,0.00,,,0.00,,2013-02-14 22:31:00,
2013-02-14 15:42:00,63.0,11.0,30.04,WNW,301,4.0,11.0,13,0.00,,,0.00,,2013-02-14 22:42:00,
2013-02-14 15:52:00,63.0,10.0,30.03,WSW,255,6.0,11.0,12,0.00,,,0.00,,2013-02-14 22:52:00,
2013-02-14 16:01:00,63.0,10.0,30.02,North,11,6.0,11.0,12,0.00,,,0.00,,2013-02-14 23:01:00,
2013-02-14 16:11:00,63.0,10.0,30.02,North,11,6.0,11.0,12,0.00,,,0.00,,2013-02-14 23:11:00,
2013-02-14 16:21:00,63.0,10.0,30.03,SSE,166,3.0,6.0,12,0.00,,,0.00,,2013-02-14 23:21:00,
2013-02-14 16:31:00,63.0,10.0,30.02,North,349,5.0,12.0,12,0.00,,,0.00,,2013-02-14 23:31:00,
2013-02-14 16:41:00,63.0,10.0,30.02,North,349,5.0,12.0,12,0.00,,,0.00,,2013-02-14 23:41:00,
2013-02-14 16:52:00,63.0,10.0,30.02,NNE,13,5.0,7.0,12,0.00,,,0.00,,2013-02-14 23:52:00,
2013-02-14 17:01:00,62.0,11.0,30.03,NNW,342,3.0,7.0,13,0.00,,,0.00,,2013-02-15 00:01:00,
2013-02-14 17:11:00,62.0,11.0,30.03,NNW,342,3.0,7.0,13,0.00,,,0.00,,2013-02-15 00:11:00,
2013-02-14 17:21:00,62.0,11.0,30.03,ENE,62,3.0,8.0,13,0.00,,,0.00,,2013-02-15 00:21:00,
2013-02-14 17:31:00,62.0,11.0,30.03,NE,48,3.0,7.0,13,0.00,,,0.00,,2013-02-15 00:31:00,
2013-02-14 17:42:00,62.0,11.0,30.03,NE,48,3.0,7.0,13,0.00,,,0.00,,2013-02-15 00:42:00,
2013-02-14 17:52:00,60.0,12.0,30.04,NE,55,3.0,9.0,15,0.00,,,0.00,,2013-02-15 00:52:00,
2013-02-14 18:02:00,60.0,12.0,30.04,ESE,107,2.0,7.0,15,0.00,,,0.00,,2013-02-15 01:02:00,
2013-02-14 18:11:00,60.0,12.0,30.04,ESE,107,2.0,7.0,15,0.00,,,0.00,,2013-02-15 01:11:00,
2013-02-14 18:21:00,58.0,12.0,30.05,NNW,338,3.0,4.0,16,0.00,,,0.00,,2013-02-15 01:21:00,
2013-02-14 18:31:00,57.0,13.0,30.05,WNW,295,2.0,3.0,17,0.00,,,0.00,,2013-02-15 01:31:00,
2013-02-14 18:41:00,57.0,13.0,30.05,WNW,295,2.0,3.0,17,0.00,,,0.00,,2013-02-15 01:41:00,
2013-02-14 18:52:00,56.0,14.0,30.05,West,276,0.0,2.0,19,0.00,,,0.00,,2013-02-15 01:52:00,
2013-02-14 19:01:00,55.0,15.0,30.06,West,276,0.0,0.0,20,0.00,,,0.00,,2013-02-15 02:01:00,
2013-02-14 19:11:00,54.0,15.0,30.06,West,276,0.0,0.0,21,0.00,,,0.00,,2013-02-15 02:11:00,
2013-02-14 19:21:00,54.0,15.0,30.06,West,276,0.0,0.0,21,0.00,,,0.00,,2013-02-15 02:21:00,
2013-02-14 19:31:00,52.0,14.0,30.06,West,276,0.0,0.0,22,0.00,,,0.00,,2013-02-15 02:31:00,
2013-02-14 19:41:00,52.0,14.0,30.06,West,276,0.0,0.0,22,0.00,,,0.00,,2013-02-15 02:41:00,
2013-02-14 19:52:00,52.0,15.0,30.06,West,276,0.0,0.0,23,0.00,,,0.00,,2013-02-15 02:52:00,
2013-02-14 20:02:00,51.0,16.0,30.06,West,276,0.0,0.0,25,0.00,,,0.00,,2013-02-15 03:02:00,
2013-02-14 20:11:00,49.0,17.0,30.07,West,276,0.0,0.0,28,0.00,,,0.00,,2013-02-15 03:11:00,
2013-02-14 20:22:00,49.0,17.0,30.07,West,276,0.0,0.0,28,0.00,,,0.00,,2013-02-15 03:22:00,
2013-02-14 20:32:00,47.0,18.0,30.07,West,276,0.0,0.0,31,0.00,,,0.00,,2013-02-15 03:32:00,
2013-02-14 20:42:00,47.0,18.0,30.07,West,276,0.0,0.0,31,0.00,,,0.00,,2013-02-15 03:42:00,
2013-02-14 20:52:00,45.0,17.0,30.08,West,276,0.0,0.0,32,0.00,,,0.00,,2013-02-15 03:52:00,
2013-02-14 21:01:00,44.0,17.0,30.09,WNW,294,0.0,1.0,33,0.00,,,0.00,,2013-02-15 04:01:00,
2013-02-14 21:11:00,44.0,17.0,30.09,WNW,294,0.0,1.0,33,0.00,,,0.00,,2013-02-15 04:11:00,
2013-02-14 21:21:00,44.0,17.0,30.09,NW,311,0.0,0.0,34,0.00,,,0.00,,2013-02-15 04:21:00,
2013-02-14 21:31:00,44.0,16.0,30.10,NNW,336,0.0,3.0,32,0.00,,,0.00,,2013-02-15 04:31:00,
2013-02-14 21:42:00,44.0,16.0,30.10,NNW,336,0.0,3.0,32,0.00,,,0.00,,2013-02-15 04:42:00,
2013-02-14 21:52:00,44.0,15.0,30.11,NNW,342,3.0,3.0,30,0.00,,,0.00,,2013-02-15 04:52:00,
2013-02-14 22:02:00,44.0,14.0,30.12,NNW,342,2.0,3.0,29,0.00,,,0.00,,2013-02-15 05:02:00,
2013-02-14 22:11:00,44.0,14.0,30.12,NNW,342,2.0,3.0,29,0.00,,,0.00,,2013-02-15 05:11:00,
2013-02-14 22:22:00,44.0,14.0,30.12,NNW,336,0.0,0.0,29,0.00,,,0.00,,2013-02-15 05:22:00,
2013-02-14 22:32:00,43.0,15.0,30.13,NNW,336,0.0,0.0,32,0.00,,,0.00,,2013-02-15 05:32:00,
2013-02-14 22:41:00,43.0,15.0,30.13,NNW,336,0.0,0.0,32,0.00,,,0.00,,2013-02-15 05:41:00,
2013-02-14 22:52:00,42.0,14.0,30.13,NNW,336,0.0,0.0,32,0.00,,,0.00,,2013-02-15 05:52:00,
2013-02-14 23:02:00,41.0,15.0,30.13,NNW,336,0.0,0.0,34,0.00,,,0.00,,2013-02-15 06:02:00,
2013-02-14 23:11:00,40.0,15.0,30.14,NNW,336,0.0,0.0,35,0.00,,,0.00,,2013-02-15 06:11:00,
2013-02-14 23:21:00,40.0,15.0,30.14,NNW,336,0.0,0.0,35,0.00,,,0.00,,2013-02-15 06:21:00,
2013-02-14 23:31:00,40.0,15.0,30.14,NNW,346,3.0,4.0,35,0.00,,,0.00,,2013-02-15 06:31:00,
2013-02-14 23:42:00,40.0,15.0,30.14,NNW,346,3.0,4.0,35,0.00,,,0.00,,2013-02-15 06:42:00,
2013-02-14 23:52:00,42.0,15.0,30.15,North,4,6.0,10.0,33,0.00,,,0.00,,2013-02-15 06:52:00,